SCP
0 0 0 0 0 0 0 0 0 0 0 0 0 0 0 0 0 0 0 -0 0 0 0 0 0 0 0 1 1 0 0 0 0 0 0 0 0 0 0 0 0 0 0
1 1 1 1 1 1 0 0 0 0 0 0 0 0 0 0 0 0 0 0 0 0 0 0 0 0 0 0 0 0 0 0 0 0 0 0 0 -0 0 0 0 0 0
1 1 1 1 1 1 0 0 0 0 0 0 0 0 0 0 0 0 0 0 0 0 0 0 0 0 0 0 0 0 0 0 0 0 0 0 0 0 0 -0 -0 0 0
1 1 1 1 1 0 0 0 0 0 0 0 0 0 0 0 0 0 0 0 0 0 0 0 0 0 0 0 0 0 0 0 0 0 0 0 0 0 0 0 0 0 0
1 1 1 0 1 0 0 0 0 0 0 0 0 0 0 0 0 0 0 0 0 0 0 0 0 0 0 0 0 0 0 0 0 0 0 0 0 0 0 0 0 0 0
1 1 1 1 1 0 0 0 0 0 0 0 0 0 0 0 0 0 0 0 0 0 0 0 0 0 0 0 0 0 0 0 0 0 0 0 0 0 0 0 0 0 0
1 1 1 1 0 0 0 0 0 0 0 0 0 0 0 0 0 0 0 0 0 0 0 0 0 0 0 0 0 0 0 0 -0 -0 0 0 0 0 0 0 -0 0 0
1 0 0 0 0 0 0 0 0 0 0 0 0 0 0 0 0 0 0 0 0 0 0 0 0 0 0 1 0 0 0 0 -0 -0 -0 0 0 0 0 -0 -0 -0 -0
1 0 0 0 0 0 0 0 0 0 0 0 0 0 0 0 0 0 0 0 0 0 0 0 0 0 0 0 0 0 0 0 -0 -0 -0 -0 -0 -0 -0 -0 -0 -0 -0
0 0 0 0 0 0 0 0 0 0 0 0 0 -0 -0 0 0 0 0 0 0 0 0 0 0 0 0 1 0 0 0 -0 -0 -0 -0 -0 -0 -0 -0 -0 -0 -0 -0
0 0 0 0 0 0 0 0 -0 -0 -0 -0 0 -0 -0 -0 0 0 0 0 0 0 0 0 0 0 0 0 0 0 0 0 0 0 0 -0 -0 -0 -0 -0 -0 -0 0
0 0 0 0 0 0 0 0 -0 -0 -0 0 -0 -0 0 -0 0 0 0 0 0 0 0 0 0 0 0 1 0 0 0 0 0 0 0 -0 -0 -0 -0 -0 -0 0 0
0 0 0 0 0 0 -0 -0 0 0 0 -0 -0 -0 -0 0 0 0 0 0 0 0 0 0 0 0 0 0 0 0 0 0 0 0 0 -0 -0 -0 -0 -0 -0 0 0
0 0 0 0 0 0 -0 -0 0 0 0 0 0 -0 -0 0 0 -0 0 0 0 0 0 0 0 0 0 0 0 0 0 -0 0 -0 -0 -0 -0 -0 -0 0 0 -0 -0
0 0 0 -0 -0 0 -0 0 0 0 0 0 0 0 0 0 -0 -0 -0 0 0 0 0 0 0 0 0 -0 0 0 0 0 -0 -0 -0 -0 0 0 0 0 0 -0 0
0 0 -0 -0 -0 -0 0 0 0 0 0 0 0 0 0 0 0 -0 0 0 0 0 0 0 0 0 0 -0 -0 0 0 0 0 -0 -0 0 0 0 -0 0 0 0 0
0 0 -0 -0 -0 -0 0 0 0 0 0 0 0 0 -0 -0 0 0 0 0 0 0 0 0 0 0 0 0 0 0 0 0 0 -0 0 0 0 0 -0 0 0 0 -0
0 -0 0 0 0 -0 0 0 0 0 0 0 0 0 0 -0 -0 0 0 0 0 0 0 0 0 0 0 0 0 0 0 0 0 -0 0 -0 -0 -0 0 0 0 -0 -0
-0 -0 -0 -0 -0 -0 0 0 0 0 0 0 0 0 0 0 0 0 0 0 0 0 0 0 0 0 0 0 0 0 0 0 -0 -0 0 0 -0 -0 0 0 -0 0 0
0 -0 0 -0 -0 -0 -0 0 0 0 0 0 0 0 0 -0 0 -0 0 0 0 0 0 0 0 0 0 0 0 -0 0 0 0 0 0 0 -0 0 0 -0 0 -0 -0
0 0 -0 0 -0 -0 0 0 0 0 -0 -0 0 -0 0 0 0 0 0 -0 -0 0 0 0 0 0 0 0 0 0 0 0 0 0 0 0 0 0 0 0 -0 -0 -0
0 -0 -0 -0 -0 0 0 0 0 0 -0 -0 -0 0 0 0 0 -0 -0 -0 0 0 0 0 0 0 0 0 0 0 0 0 0 0 0 0 0 0 0 0 -0 -0 -0
-0 -0 -0 -0 0 0 0 0 0 0 0 0 0 0 0 0 -0 0 -0 -0 0 0 0 0 0 0 0 0 0 0 0 0 0 0 0 0 0 0 0 0 -0 0 0
-0 -0 -0 -0 -0 0 0 0 0 -0 -0 -0 -0 -0 -0 0 0 0 0 0 0 0 0 0 0 -0 -0 0 0 0 0 0 0 0 0 -0 -0 -0 -0 0 0 0 0
0 -0 -0 -0 -0 0 -0 0 0 0 -0 -0 -0 -0 -0 -0 -0 -0 -0 0 0 0 0 0 0 -0 -0 0 0 0 -0 -0 -0 -0 0 -0 -0 0 0 0 0 0 0
0 0 -0 -0 -0 0 -0 -0 0 0 -0 -0 -0 -0 -0 -0 -0 -0 -0 -0 0 -0 -0 -0 0 -0 0 -0 -0 0 -0 -0 -0 -0 -0 -0 -0 0 0 0 0 0 0
Wind_Speed_500mb
35 36 33 34 35 36 35 33 31 29 28 21 23 22 23 22 24 34 39 42 49 43 35 32 35 28 34 44 39 35 38 41 43 48 46 37 40 42 38 35 36 37 33
35 36 32 33 36 39 36 34 36 37 36 33 30 33 36 36 30 33 36 30 41 45 37 35 31 28 32 44 44 39 41 46 41 47 45 38 37 40 37 38 36 35 35
39 38 35 42 42 38 40 39 39 47 45 42 44 42 39 36 39 40 37 37 32 32 29 29 32 30 34 42 48 44 42 43 44 49 47 40 35 36 34 38 39 40 39
42 41 39 33 38 45 42 39 41 44 44 39 40 41 44 43 42 46 40 42 38 32 24 24 23 31 35 40 48 44 43 42 45 48 43 38 38 35 38 40 44 44 30
37 39 35 27 38 40 40 40 35 38 38 41 41 39 40 43 44 44 53 43 48 37 26 24 23 25 33 40 46 48 46 45 44 49 49 39 37 35 37 47 48 35 29
37 33 31 36 34 39 38 33 35 33 35 32 35 39 36 38 36 37 40 42 41 44 39 30 23 26 35 42 45 50 48 50 50 55 49 41 35 38 48 50 42 34 31
35 34 41 39 37 36 35 33 29 30 27 30 31 32 32 33 33 34 37 44 38 36 46 44 36 30 36 43 47 50 52 55 56 53 50 43 37 48 53 51 42 40 36
43 38 40 35 32 31 26 23 23 24 26 28 30 26 17 28 32 31 34 42 41 38 33 31 38 30 34 42 48 51 56 61 57 57 47 41 45 53 56 50 43 43 34
35 36 28 32 31 27 21 20 18 22 22 26 31 22 10 9 15 23 32 36 38 41 40 34 36 36 37 45 48 51 62 62 58 62 53 49 51 60 56 52 50 40 44
33 29 22 25 23 19 18 17 18 21 23 28 28 38 16 3 7 13 35 34 28 40 43 43 36 36 38 43 51 54 62 68 74 66 57 56 61 66 57 56 46 44 40
26 26 26 24 20 18 16 17 19 18 18 19 21 21 27 13 19 8 16 36 34 28 32 34 30 30 37 43 52 56 62 61 56 59 55 58 70 64 58 49 49 48 31
27 23 23 20 18 15 15 13 13 8 10 13 21 20 22 19 25 22 20 33 33 28 27 24 25 28 30 42 48 61 66 60 64 53 56 68 69 64 59 53 56 35 27
17 14 20 23 13 12 12 15 7 8 13 17 21 25 18 13 14 16 18 33 33 29 25 22 20 21 32 33 45 54 68 63 58 59 73 76 67 61 57 59 44 28 26
8 9 18 15 11 9 14 10 9 10 9 9 12 20 19 16 20 16 21 33 33 36 29 23 21 26 22 23 42 52 75 73 69 78 90 79 60 57 58 47 34 27 24
6 9 13 11 10 18 11 6 9 7 9 12 16 19 18 12 12 15 17 33 41 37 32 26 27 32 31 31 50 53 47 69 89 86 73 66 66 67 54 43 31 27 24
10 8 10 12 15 18 11 6 8 5 5 9 12 15 16 16 10 16 16 34 29 33 26 28 36 34 37 38 37 43 43 63 80 74 74 73 65 56 37 40 27 26 24
11 8 15 20 21 14 9 3 5 11 7 2 7 9 13 15 16 18 20 32 31 40 37 40 37 35 34 47 65 59 63 89 82 79 73 66 56 40 42 39 27 24 20
16 22 18 15 17 13 6 6 9 4 2 4 5 10 13 13 14 24 29 32 30 32 31 49 44 43 45 67 56 63 93 87 72 68 67 57 40 40 45 34 27 20 21
23 21 15 17 17 17 14 10 8 4 5 12 15 16 14 17 26 24 27 26 26 26 32 51 52 55 64 67 86 81 77 72 72 69 58 48 43 43 39 32 26 23 17
25 22 18 15 13 14 11 9 10 10 13 17 18 15 16 20 28 26 17 14 21 32 44 53 57 58 74 79 86 84 84 78 70 60 49 43 40 42 40 35 25 20 17
25 24 22 18 16 12 12 9 10 17 14 10 12 13 13 14 18 19 18 18 20 28 46 53 67 81 85 90 96 98 93 78 62 50 42 42 40 41 37 29 23 19 17
25 25 27 18 16 11 7 8 10 11 12 12 11 17 15 11 11 11 12 7 9 33 60 80 82 89 89 96 103 97 85 71 55 42 41 42 38 34 27 22 22 20 16
25 26 24 20 18 13 12 12 18 17 15 15 11 12 9 15 15 16 18 18 29 46 69 86 92 94 93 93 87 71 62 53 46 47 45 44 38 29 25 22 19 18 17
22 26 25 19 15 18 20 13 16 20 24 21 16 10 8 17 15 17 28 33 48 53 62 70 61 77 83 81 57 51 44 37 38 51 49 42 34 25 21 18 19 21 18
24 25 21 17 19 25 23 18 20 23 21 18 13 12 14 13 17 19 33 45 58 59 59 65 59 57 56 51 42 48 50 50 57 47 39 19 26 21 16 18 20 21 21
26 26 20 21 23 28 25 16 14 14 17 19 16 14 17 25 20 26 36 48 63 73 59 56 57 52 44 45 47 47 49 54 52 36 34 26 15 18 12 20 19 21 22
Wind_Direction_500mb
249 260 249 256 263 270 281 273 262 262 260 238 230 236 256 250 255 249 248 239 229 231 238 242 250 257 221 211 209 209 205 208 204 202 198 212 215 203 199 193 187 183 182
248 259 249 248 256 267 271 264 257 248 255 249 234 234 242 243 245 241 250 255 221 228 238 241 249 256 228 210 210 209 206 207 202 202 206 212 213 206 195 185 184 183 166
256 264 262 248 252 259 267 265 256 250 248 244 240 239 242 245 237 242 242 238 233 222 242 243 244 244 230 214 210 208 208 204 204 207 207 211 205 194 194 185 187 176 160
258 267 269 256 250 260 265 266 267 254 250 251 242 244 237 240 246 236 242 234 232 232 236 244 254 229 223 216 211 208 206 204 206 208 207 204 197 198 199 199 190 169 169
258 264 273 278 258 262 270 273 263 254 254 252 252 246 244 245 244 239 240 234 233 228 231 241 252 222 218 219 210 206 205 203 204 199 195 196 194 199 197 190 173 166 166
255 265 263 274 273 279 273 270 271 254 258 244 246 247 249 248 246 240 234 230 233 225 234 226 241 238 222 215 208 204 203 203 203 194 193 193 191 192 190 176 163 168 163
244 251 254 276 276 278 282 273 257 252 236 244 238 240 245 247 245 240 228 220 220 224 223 240 239 238 225 210 211 203 202 199 204 194 190 188 191 185 178 164 169 168 156
251 268 268 265 272 279 275 272 250 241 239 221 224 238 258 250 240 228 217 210 209 210 224 230 236 231 218 212 206 204 203 196 202 193 184 187 192 183 175 170 169 164 156
261 264 275 264 271 271 269 267 255 238 235 227 229 224 203 230 216 213 206 212 211 214 221 229 225 232 246 216 207 206 200 199 199 193 174 192 191 178 170 173 170 167 154
260 272 283 276 266 267 268 282 267 251 240 234 232 221 200 196 166 197 219 220 229 224 220 224 220 228 232 212 204 207 201 201 198 189 179 188 183 173 176 176 166 157 165
274 285 272 255 261 272 278 261 254 242 228 217 219 207 201 228 220 236 230 219 221 214 210 221 228 221 216 206 203 205 202 205 195 180 180 187 179 174 176 172 156 162 173
276 272 253 235 255 272 267 237 221 206 222 230 223 205 211 255 226 229 229 205 199 195 197 202 216 205 195 203 206 201 203 193 186 184 183 178 171 175 176 168 165 167 175
267 244 229 225 247 267 216 207 210 256 246 245 225 217 226 220 238 216 218 184 179 177 168 174 194 170 173 197 203 196 195 192 185 181 177 170 170 174 168 163 159 164 176
257 228 210 223 241 216 193 185 229 216 222 210 212 221 227 212 216 204 209 177 174 172 167 157 153 170 168 178 192 190 184 195 180 179 171 167 167 167 163 167 156 173 171
220 197 209 207 205 170 183 190 187 197 217 216 212 220 225 195 197 215 216 188 182 163 134 147 118 139 122 116 192 179 176 182 173 170 168 160 167 162 165 152 165 170 174
160 163 178 172 164 169 193 209 171 203 215 178 189 209 218 208 185 220 207 190 193 178 141 150 136 151 146 135 133 200 192 187 167 171 164 164 163 167 159 147 170 174 183
156 146 127 139 138 177 198 206 182 194 192 228 231 212 228 213 190 208 202 187 182 176 176 143 141 144 156 147 154 160 163 168 164 163 162 162 162 161 156 153 177 185 179
147 133 134 142 149 169 190 168 168 236 18 3 112 97 108 136 168 173 177 183 176 176 175 154 149 147 156 158 158 173 165 159 156 158 161 159 166 164 156 164 180 177 184
150 139 153 168 173 171 168 197 177 151 129 113 103 94 87 113 144 146 151 163 156 154 169 160 153 158 159 160 158 154 159 156 150 155 158 161 160 158 158 180 183 198 201
160 147 148 125 147 156 151 135 138 126 114 125 123 118 111 120 142 147 155 145 159 156 163 165 157 164 156 163 166 149 147 146 152 162 164 168 174 170 177 185 199 206 214
156 159 145 152 156 156 148 150 153 133 127 130 120 129 158 124 164 170 189 176 185 176 166 166 164 157 153 150 150 152 150 158 157 165 167 166 174 172 178 193 203 216 226
163 157 160 170 167 174 169 190 168 154 141 140 109 125 138 151 172 172 161 157 172 176 166 162 161 149 147 151 154 153 152 153 150 169 173 168 171 180 192 201 215 224 230
157 152 175 182 174 193 181 162 141 128 118 119 115 114 108 125 135 140 126 129 163 166 168 163 157 162 152 156 148 150 157 165 161 169 172 172 180 192 202 211 220 220 218
160 166 169 169 179 175 167 163 138 127 127 131 146 136 122 133 140 143 131 136 153 157 165 165 158 155 151 150 154 154 157 165 170 165 177 176 181 188 203 214 222 220 231
169 175 166 177 168 164 161 148 137 136 141 147 156 150 161 153 148 152 138 151 156 156 159 155 142 143 152 153 154 159 165 165 160 168 177 188 184 191 221 241 234 230 242
170 168 162 154 153 152 150 150 169 170 163 161 154 166 176 165 158 160 150 154 159 157 152 148 153 151 152 156 158 161 159 165 165 168 182 195 209 214 238 239 231 238 255
Wind_Speed_850mb
35 36 33 34 35 36 35 33 31 29 28 21 23 22 23 22 24 34 39 42 49 43 35 32 35 28 34 44 39 35 38 41 43 48 46 37 40 42 38 35 36 37 33
35 36 32 33 36 39 36 34 36 37 36 33 30 33 36 36 30 33 36 30 41 45 37 35 31 28 32 44 44 39 41 46 41 47 45 38 37 40 37 38 36 35 35
39 38 35 42 42 38 40 39 39 47 45 42 44 42 39 36 39 40 37 37 32 32 29 29 32 30 34 42 48 44 42 43 44 49 47 40 35 36 34 38 39 40 39
42 41 39 33 38 45 42 39 41 44 44 39 40 41 44 43 42 46 40 42 38 32 24 24 23 31 35 40 48 44 43 42 45 48 43 38 38 35 38 40 44 44 30
37 39 35 27 38 40 40 40 35 38 38 41 41 39 40 43 44 44 53 43 48 37 26 24 23 25 33 40 46 48 46 45 44 49 49 39 37 35 37 47 48 35 29
37 33 31 36 34 39 38 33 35 33 35 32 35 39 36 38 36 37 40 42 41 44 39 30 23 26 35 42 45 50 48 50 50 55 49 41 35 38 48 50 42 34 31
35 34 41 39 37 36 35 33 29 30 27 30 31 32 32 33 33 34 37 44 38 36 46 44 36 30 36 43 47 50 52 55 56 53 50 43 37 48 53 51 42 40 36
43 38 40 35 32 31 26 23 23 24 26 28 30 26 17 28 32 31 34 42 41 38 33 31 38 30 34 42 48 51 56 61 57 57 47 41 45 53 56 50 43 43 34
35 36 28 32 31 27 21 20 18 22 22 26 31 22 10 9 15 23 32 36 38 41 40 34 36 36 37 45 48 51 62 62 58 62 53 49 51 60 56 52 50 40 44
33 29 22 25 23 19 18 17 18 21 23 28 28 38 16 3 7 13 35 34 28 40 43 43 36 36 38 43 51 54 62 68 74 66 57 56 61 66 57 56 46 44 40
26 26 26 24 20 18 16 17 19 18 18 19 21 21 27 13 19 8 16 36 34 28 32 34 30 30 37 43 52 56 62 61 56 59 55 58 70 64 58 49 49 48 31
27 23 23 20 18 15 15 13 13 8 10 13 21 20 22 19 25 22 20 33 33 28 27 24 25 28 30 42 48 61 66 60 64 53 56 68 69 64 59 53 56 35 27
17 14 20 23 13 12 12 15 7 8 13 17 21 25 18 13 14 16 18 33 33 29 25 22 20 21 32 33 45 54 68 63 58 59 73 76 67 61 57 59 44 28 26
8 9 18 15 11 9 14 10 9 10 9 9 12 20 19 16 20 16 21 33 33 36 29 23 21 26 22 23 42 52 75 73 69 78 90 79 60 57 58 47 34 27 24
6 9 13 11 10 18 11 6 9 7 9 12 16 19 18 12 12 15 17 33 41 37 32 26 27 32 31 31 50 53 47 69 89 86 73 66 66 67 54 43 31 27 24
10 8 10 12 15 18 11 6 8 5 5 9 12 15 16 16 10 16 16 34 29 33 26 28 36 34 37 38 37 43 43 63 80 74 74 73 65 56 37 40 27 26 24
11 8 15 20 21 14 9 3 5 11 7 2 7 9 13 15 16 18 20 32 31 40 37 40 37 35 34 47 65 59 63 89 82 79 73 66 56 40 42 39 27 24 20
16 22 18 15 17 13 6 6 9 4 2 4 5 10 13 13 14 24 29 32 30 32 31 49 44 43 45 67 56 63 93 87 72 68 67 57 40 40 45 34 27 20 21
23 21 15 17 17 17 14 10 8 4 5 12 15 16 14 17 26 24 27 26 26 26 32 51 52 55 64 67 86 81 77 72 72 69 58 48 43 43 39 32 26 23 17
25 22 18 15 13 14 11 9 10 10 13 17 18 15 16 20 28 26 17 14 21 32 44 53 57 58 74 79 86 84 84 78 70 60 49 43 40 42 40 35 25 20 17
25 24 22 18 16 12 12 9 10 17 14 10 12 13 13 14 18 19 18 18 20 28 46 53 67 81 85 90 96 98 93 78 62 50 42 42 40 41 37 29 23 19 17
25 25 27 18 16 11 7 8 10 11 12 12 11 17 15 11 11 11 12 7 9 33 60 80 82 89 89 96 103 97 85 71 55 42 41 42 38 34 27 22 22 20 16
25 26 24 20 18 13 12 12 18 17 15 15 11 12 9 15 15 16 18 18 29 46 69 86 92 94 93 93 87 71 62 53 46 47 45 44 38 29 25 22 19 18 17
22 26 25 19 15 18 20 13 16 20 24 21 16 10 8 17 15 17 28 33 48 53 62 70 61 77 83 81 57 51 44 37 38 51 49 42 34 25 21 18 19 21 18
24 25 21 17 19 25 23 18 20 23 21 18 13 12 14 13 17 19 33 45 58 59 59 65 59 57 56 51 42 48 50 50 57 47 39 19 26 21 16 18 20 21 21
26 26 20 21 23 28 25 16 14 14 17 19 16 14 17 25 20 26 36 48 63 73 59 56 57 52 44 45 47 47 49 54 52 36 34 26 15 18 12 20 19 21 22
Wind_Direction_850mb
249 260 249 256 263 270 281 273 262 262 260 238 230 236 256 250 255 249 248 239 229 231 238 242 250 257 221 211 209 209 205 208 204 202 198 212 215 203 199 193 187 183 182
248 259 249 248 256 267 271 264 257 248 255 249 234 234 242 243 245 241 250 255 221 228 238 241 249 256 228 210 210 209 206 207 202 202 206 212 213 206 195 185 184 183 166
256 264 262 248 252 259 267 265 256 250 248 244 240 239 242 245 237 242 242 238 233 222 242 243 244 244 230 214 210 208 208 204 204 207 207 211 205 194 194 185 187 176 160
258 267 269 256 250 260 265 266 267 254 250 251 242 244 237 240 246 236 242 234 232 232 236 244 254 229 223 216 211 208 206 204 206 208 207 204 197 198 199 199 190 169 169
258 264 273 278 258 262 270 273 263 254 254 252 252 246 244 245 244 239 240 234 233 228 231 241 252 222 218 219 210 206 205 203 204 199 195 196 194 199 197 190 173 166 166
255 265 263 274 273 279 273 270 271 254 258 244 246 247 249 248 246 240 234 230 233 225 234 226 241 238 222 215 208 204 203 203 203 194 193 193 191 192 190 176 163 168 163
244 251 254 276 276 278 282 273 257 252 236 244 238 240 245 247 245 240 228 220 220 224 223 240 239 238 225 210 211 203 202 199 204 194 190 188 191 185 178 164 169 168 156
251 268 268 265 272 279 275 272 250 241 239 221 224 238 258 250 240 228 217 210 209 210 224 230 236 231 218 212 206 204 203 196 202 193 184 187 192 183 175 170 169 164 156
261 264 275 264 271 271 269 267 255 238 235 227 229 224 203 230 216 213 206 212 211 214 221 229 225 232 246 216 207 206 200 199 199 193 174 192 191 178 170 173 170 167 154
260 272 283 276 266 267 268 282 267 251 240 234 232 221 200 196 166 197 219 220 229 224 220 224 220 228 232 212 204 207 201 201 198 189 179 188 183 173 176 176 166 157 165
274 285 272 255 261 272 278 261 254 242 228 217 219 207 201 228 220 236 230 219 221 214 210 221 228 221 216 206 203 205 202 205 195 180 180 187 179 174 176 172 156 162 173
276 272 253 235 255 272 267 237 221 206 222 230 223 205 211 255 226 229 229 205 199 195 197 202 216 205 195 203 206 201 203 193 186 184 183 178 171 175 176 168 165 167 175
267 244 229 225 247 267 216 207 210 256 246 245 225 217 226 220 238 216 218 184 179 177 168 174 194 170 173 197 203 196 195 192 185 181 177 170 170 174 168 163 159 164 176
257 228 210 223 241 216 193 185 229 216 222 210 212 221 227 212 216 204 209 177 174 172 167 157 153 170 168 178 192 190 184 195 180 179 171 167 167 167 163 167 156 173 171
220 197 209 207 205 170 183 190 187 197 217 216 212 220 225 195 197 215 216 188 182 163 134 147 118 139 122 116 192 179 176 182 173 170 168 160 167 162 165 152 165 170 174
160 163 178 172 164 169 193 209 171 203 215 178 189 209 218 208 185 220 207 190 193 178 141 150 136 151 146 135 133 200 192 187 167 171 164 164 163 167 159 147 170 174 183
156 146 127 139 138 177 198 206 182 194 192 228 231 212 228 213 190 208 202 187 182 176 176 143 141 144 156 147 154 160 163 168 164 163 162 162 162 161 156 153 177 185 179
147 133 134 142 149 169 190 168 168 236 18 3 112 97 108 136 168 173 177 183 176 176 175 154 149 147 156 158 158 173 165 159 156 158 161 159 166 164 156 164 180 177 184
150 139 153 168 173 171 168 197 177 151 129 113 103 94 87 113 144 146 151 163 156 154 169 160 153 158 159 160 158 154 159 156 150 155 158 161 160 158 158 180 183 198 201
160 147 148 125 147 156 151 135 138 126 114 125 123 118 111 120 142 147 155 145 159 156 163 165 157 164 156 163 166 149 147 146 152 162 164 168 174 170 177 185 199 206 214
156 159 145 152 156 156 148 150 153 133 127 130 120 129 158 124 164 170 189 176 185 176 166 166 164 157 153 150 150 152 150 158 157 165 167 166 174 172 178 193 203 216 226
163 157 160 170 167 174 169 190 168 154 141 140 109 125 138 151 172 172 161 157 172 176 166 162 161 149 147 151 154 153 152 153 150 169 173 168 171 180 192 201 215 224 230
157 152 175 182 174 193 181 162 141 128 118 119 115 114 108 125 135 140 126 129 163 166 168 163 157 162 152 156 148 150 157 165 161 169 172 172 180 192 202 211 220 220 218
160 166 169 169 179 175 167 163 138 127 127 131 146 136 122 133 140 143 131 136 153 157 165 165 158 155 151 150 154 154 157 165 170 165 177 176 181 188 203 214 222 220 231
169 175 166 177 168 164 161 148 137 136 141 147 156 150 161 153 148 152 138 151 156 156 159 155 142 143 152 153 154 159 165 165 160 168 177 188 184 191 221 241 234 230 242
170 168 162 154 153 152 150 150 169 170 163 161 154 166 176 165 158 160 150 154 159 157 152 148 153 151 152 156 158 161 159 165 165 168 182 195 209 214 238 239 231 238 255